Regional Weather Roundup
Issued by NWS Green Bay, WI

Home | Current Version | Previous Version | Graphics & Text | Print | Product List | Glossary Off
Versions: 1 2 3 4 5 6 7 8 9 10 11 12 13 14 15 16 17 18 19 20 21 22 23 24 25 26 27 28 29 30 31 32 33 34 35 36 37 38 39 40 41 42 43 44 45 46 47 48 49 50

000
ASUS43 KGRB 080300
RWRGRB

NORTH-CENTRAL AND NORTHEAST WISCONSIN REGIONAL WEATHER ROUNDUP
NATIONAL WEATHER SERVICE GREEN BAY WI
900 PM CST SUN FEB 07 2016

WIZ005-009-010>012-018-019-080400-
NORTH CENTRAL WISCONSIN

CITY           SKY/WX    TMP DP  RH WIND       PRES   REMARKS
IRONWOOD       CLOUDY    30  30 100 W12       29.49S
MANITOWISH WTR NOT AVBL
ARBOR VITAE    NOT AVBL
EAGLE RIVER    NOT AVBL
LAND O LAKES   NOT AVBL
RHINELANDER    LGT SNOW  32  29  88 SW6       29.52F FOG
PHILLIPS       NOT AVBL
ANTIGO         NOT AVBL
TOMAHAWK       NOT AVBL
MERRILL        NOT AVBL
$$

WIZ013-073-080400-
NORTHEAST WISCONSIN

CITY           SKY/WX    TMP DP  RH WIND       PRES   REMARKS
IRON MOUNTAIN  CLOUDY    34  29  82 S5        29.52F
MARINETTE      CLOUDY    36  28  75 SW8       29.57F
$$

WIZ017-030-035>037-045-080400-
CENTRAL WISCONSIN

CITY           SKY/WX    TMP DP  RH WIND       PRES   REMARKS
MEDFORD        NOT AVBL
WAUSAU         CLOUDY    36  26  67 SW9       29.54F
MOSINEE        CLOUDY    34  28  80 SW12      29.57F
MARSHFIELD     CLOUDY    35  27  72 SW12      29.56F
WISC RAPIDS    CLOUDY    36  25  64 W8        29.60F
STEVENS POINT  NOT AVBL
WAUPACA        NOT AVBL
SHAWANO        NOT AVBL
CLINTONVILLE   NOT AVBL
WAUTOMA        NOT AVBL
$$

WIZ038-039-048-051-080400-
FOX VALLEY

CITY           SKY/WX    TMP DP  RH WIND       PRES   REMARKS
NWS GREEN BAY  CLOUDY    37  28  70 S6        29.60F
APPLETON       MOCLDY    36  25  64 S9        29.58F
OSHKOSH        CLOUDY    36  26  67 VRB6      29.61F
FOND DU LAC    CLOUDY    35  26  69 SW7       29.63F
$$

WIZ022-050-052-080400-
EAST CENTRAL WISCONSIN

CITY           SKY/WX    TMP DP  RH WIND       PRES   REMARKS
EPHRAIM        NOT AVBL
STURGEON BAY   CLOUDY    36  28  75 S8        29.61F
MANITOWOC      NOT AVBL
SHEBOYGAN      PTCLDY    32  26  78 SW8       29.63F
$$

LMZ563-521-522-541>543-080400-
LAKESHORE

STATION/POSITION TIME  TEMP    WIND        PRES    VSBY  WAVE
                       AIR SEA DIR/SP/G                  HT/PER
                 (UTC) (F)     (DEG/KT/KT) (MB)    (MI)  (FT/S)
SHEBOYGAN LKSHOR 0200   37     230/  9/ 11 1004.7S
KEWAUNEE LKSHORE 0200   38                 1002.3F
NORTHPORT PIER   0200   37      CALM  /  4 1002.4S
CHAMBERS ISLAND  0200   35     170/  4/  8 1002.4F
MENOMINEE LKSHOR 0200   37                 1001.0F
$$



USA.gov is the U.S. government's official web portal to all federal, state and local government web resources and services.